Temp
47 47 47 47 46 46 46 46 47 47 47 47 47 47 47 47 48 45 42 46 39 31 37 42 44 39 40 38 31 40 37 41 35 30 29 31 30 35 38 42 41 37 36 35 34 30 30 68 68 60 66 74 76 76
47 46 46 45 46 46 46 46 46 46 46 46 46 46 47 48 47 47 37 46 46 34 34 43 45 48 47 45 40 42 39 38 37 32 34 33 29 31 34 32 51 38 43 39 43 45 61 65 59 66 70 72 74 75
45 45 45 45 45 45 45 45 45 45 45 46 46 46 46 47 47 46 41 40 39 34 36 39 40 49 54 52 54 38 42 44 40 42 33 34 31 37 29 35 43 54 54 41 41 50 48 59 64 67 72 72 76 73
45 45 45 45 45 44 44 45 45 45 45 45 46 46 46 46 47 46 39 42 39 35 30 39 53 49 55 56 55 51 46 47 44 38 33 33 31 43 37 42 40 50 50 47 41 45 49 56 61 67 69 68 69 72
45 45 44 44 44 44 44 44 45 45 45 45 45 45 46 46 46 44 41 44 45 35 31 36 45 50 53 55 52 50 47 42 34 32 31 32 40 38 40 43 44 53 49 39 42 47 47 50 57 61 64 64 67 66
44 44 44 44 45 45 45 45 45 45 45 45 45 45 45 45 45 39 35 46 46 46 33 30 50 49 53 52 49 45 43 39 34 32 33 36 43 38 34 37 52 50 51 56 56 54 53 55 58 60 62 62 63 62
44 44 44 44 44 45 44 44 44 44 44 45 45 44 42 43 41 36 38 41 43 41 32 32 39 46 49 45 42 40 40 36 35 34 33 36 40 37 36 35 44 48 48 57 61 56 50 54 52 53 56 58 57 58
43 44 44 44 44 44 44 44 44 44 45 45 45 45 46 46 45 40 47 47 46 37 34 31 37 39 44 36 35 40 36 36 35 35 36 34 36 35 33 38 42 42 52 56 57 56 55 55 55 54 55 53 50 50
44 44 44 44 44 43 44 44 44 45 45 45 46 46 45 43 37 43 49 47 46 38 33 34 34 31 38 36 38 38 38 33 39 34 35 34 34 30 32 36 39 42 45 50 51 51 52 53 53 53 52 50 47 47
43 44 43 44 43 44 44 44 45 45 45 46 43 38 33 40 46 46 41 36 34 34 34 32 40 34 41 36 35 35 38 35 32 37 38 34 31 35 36 39 41 42 44 47 47 45 47 46 46 47 48 50 50 49
43 43 44 44 44 44 44 44 45 45 45 39 33 34 41 45 40 34 32 31 33 32 37 40 43 36 42 35 34 41 36 38 31 33 33 32 30 34 38 39 43 45 44 44 45 47 49 49 50 51 53 54 54 54
43 44 44 44 44 44 44 45 45 44 40 39 40 43 40 36 33 31 31 34 34 36 42 42 43 46 47 51 43 42 37 38 28 41 33 28 34 42 42 42 45 47 47 46 48 47 49 51 53 53 54 54 55 56
43 43 44 43 44 44 44 45 44 44 45 46 38 33 33 33 28 28 28 35 36 44 46 44 43 49 48 48 43 40 32 33 42 32 30 33 42 44 43 44 45 47 46 47 48 48 46 47 51 50 51 54 56 55
43 43 43 44 44 44 44 45 43 41 41 33 30 27 31 31 35 36 34 36 46 46 45 47 46 46 49 43 43 36 40 39 33 30 30 38 43 47 49 47 44 44 45 46 46 48 48 47 47 49 50 49 50 52
43 43 43 43 44 44 44 44 43 41 37 31 32 27 33 37 37 46 48 48 47 49 50 49 49 47 42 36 42 40 34 34 36 34 38 43 48 49 49 50 50 50 49 49 49 45 42 43 47 45 50 51 45 40
43 42 44 45 45 43 44 42 40 41 38 33 34 33 37 40 40 44 46 45 51 51 52 51 45 42 40 41 37 36 37 34 36 42 46 49 49 51 51 52 52 53 53 52 52 51 45 35 36 45 39 39 33 36
42 41 44 44 43 43 42 38 37 33 33 35 35 42 40 38 40 46 48 48 53 49 44 45 34 38 45 39 38 42 37 40 43 46 52 52 51 52 52 52 53 53 53 53 53 51 48 49 41 44 44 50 43 51
41 45 44 44 43 39 38 36 35 34 30 38 36 41 43 47 45 46 47 51 51 49 48 42 47 41 38 37 36 43 45 48 51 51 52 54 54 55 55 53 54 54 53 53 51 51 49 47 49 47 51 52 48 49
45 44 43 43 42 36 33 33 35 31 36 41 44 45 48 48 49 49 51 53 53 54 49 46 43 40 40 45 45 46 48 49 48 50 52 55 54 54 54 54 54 53 53 53 53 52 52 53 51 51 51 50 47 48
43 43 43 43 41 34 32 33 38 33 33 40 47 45 47 46 49 50 50 52 53 49 43 41 41 45 46 49 52 51 52 53 51 47 48 52 54 54 54 54 53 54 53 52 52 43 51 50 52 52 52 47 45 43
42 43 42 41 36 35 34 35 34 37 39 39 47 47 45 48 46 46 47 54 46 44 41 44 44 48 52 54 56 56 54 56 53 53 51 50 53 54 54 54 54 52 50 50 48 47 45 47 47 47 43 40 40 40
37 39 37 39 34 34 33 40 37 41 40 42 45 47 42 40 42 45 52 45 43 45 47 47 48 50 51 51 52 54 54 55 54 51 43 46 49 50 50 50 50 48 48 47 47 45 45 43 42 41 39 37 38 38
38 37 36 35 32 34 34 43 34 41 35 38 44 40 37 35 41 51 42 45 45 51 52 52 52 53 51 53 53 52 52 52 51 50 50 50 52 52 50 49 49 46 44 44 43 41 40 37 38 36 36 36 35 33
38 33 32 33 34 32 40 34 41 39 40 36 37 35 38 40 48 43 40 44 47 52 51 52 53 50 51 51 48 46 47 50 50 50 50 48 46 46 47 47 47 44 42 41 40 38 35 34 35 35 33 33 33 32
30 30 32 30 36 32 31 32 34 35 31 34 34 34 36 43 36 36 38 42 46 46 47 51 49 49 47 47 47 45 48 46 44 43 47 46 44 44 43 43 41 40 39 36 34 34 33 33 33 32 32 32 31 31
28 30 30 33 33 33 34 30 31 32 33 32 34 39 40 38 32 33 37 39 40 43 43 45 46 46 43 43 43 43 43 47 46 43 43 42 41 38 35 33 33 33 35 35 33 31 31 32 31 31 31 31 31 30
29 30 37 43 40 40 36 38 39 35 31 31 34 33 33 31 30 35 40 42 42 44 46 47 46 43 42 42 43 44 44 43 40 40 42 42 41 39 37 33 31 33 35 33 32 31 30 30 29 29 29 30 30 30
35 37 31 35 36 39 32 34 32 31 34 40 38 31 31 32 31 37 39 42 45 46 45 44 45 45 42 41 40 39 38 38 39 40 41 40 39 36 35 35 35 32 33 33 32 31 31 29 28 28 28 28 29 30
33 38 36 30 32 33 32 32 34 36 38 40 33 33 33 34 32 36 39 42 44 41 37 37 37 38 39 38 38 37 38 36 33 31 30 30 32 32 36 34 33 32 32 32 32 31 30 29 29 29 29 29 29 29
33 40 33 31 31 29 31 33 32 34 40 40 42 40 37 33 35 40 40 39 36 33 34 34 35 34 32 32 32 34 35 34 33 31 29 28 29 32 32 31 31 31 31 31 30 30 31 31 31 30 28 27 27 26
39 37 33 33 30 31 31 33 34 35 34 34 34 34 34 34 35 36 36 36 36 34 32 33 33 32 32 31 31 31 31 32 33 33 32 32 32 31 30 30 30 31 31 30 29 29 29 28 27 26 25 24 24 24
34 31 32 29 29 31 33 32 32 32 33 32 31 32 32 33 31 32 36 35 33 32 32 33 31 31 32 32 33 33 32 33 32 31 29 29 29 29 30 31 31 31 30 29 29 28 27 26 25 24 23 22 22 22
31 32 33 31 30 30 31 32 34 31 32 32 30 31 31 32 30 32 38 37 34 33 32 32 32 32 32 32 32 33 32 31 30 29 28 27 27 27 30 30 31 30 29 28 27 27 26 25 23 23 22 21 20 20
MSLP
1024.13 1024.06 1023.96 1023.86 1023.75 1023.63 1023.55 1023.48 1023.28 1023.07 1022.93 1022.81 1022.68 1022.53 1022.38 1022.29 1022.18 1022.33 1021.36 1021.42 1021.38 1019.98 1018.37 1018.12 1017.36 1016.20 1015.75 1015.47 1014.66 1012.95 1013.14 1012.06 1012.39 1012.34 1011.77 1010.21 1008.53 1005.94 1003.60 1001.81 1000.83 1001.05 1001.34 1001.77 1001.42 1000.69 998.01 992.93 990.89 989.20 988.71 987.89 987.80 987.98
1023.63 1023.48 1023.37 1023.24 1023.07 1022.92 1022.75 1022.54 1022.37 1022.26 1022.09 1021.95 1021.79 1021.57 1021.34 1021.14 1021.20 1021.26 1020.72 1020.49 1020.33 1019.58 1017.93 1017.18 1015.94 1015.02 1014.34 1013.65 1013.43 1012.60 1012.37 1012.25 1012.55 1012.49 1011.54 1010.65 1008.92 1006.82 1004.24 1000.57 999.04 998.41 998.21 999.80 999.57 997.62 994.79 992.49 992.22 990.45 989.05 987.11 988.36 988.11
1023.10 1022.90 1022.68 1022.48 1022.33 1022.16 1021.94 1021.77 1021.64 1021.50 1021.28 1021.06 1020.86 1020.59 1020.47 1020.22 1020.16 1020.27 1019.89 1019.80 1019.39 1018.36 1016.36 1014.77 1012.79 1011.57 1011.94 1011.39 1011.30 1011.21 1011.09 1011.48 1011.49 1011.58 1011.50 1010.06 1008.18 1006.05 1003.67 1000.46 998.42 996.60 996.94 998.76 999.93 996.84 996.16 995.02 992.97 991.17 990.38 989.16 989.12 989.05
1022.41 1022.24 1022.11 1021.83 1021.64 1021.46 1021.25 1021.05 1020.84 1020.61 1020.33 1020.10 1019.84 1019.65 1019.42 1019.20 1019.09 1019.13 1019.09 1018.74 1018.76 1017.67 1015.83 1011.26 1010.96 1010.12 1009.95 1009.48 1009.28 1009.76 1009.78 1010.62 1010.98 1011.41 1010.91 1009.36 1007.97 1005.92 1002.48 1000.39 998.90 997.14 997.04 997.09 997.82 997.56 997.71 995.18 994.45 992.91 990.99 990.66 990.79 991.19
1021.79 1021.61 1021.45 1021.22 1020.99 1020.78 1020.56 1020.31 1020.03 1019.70 1019.40 1019.14 1018.93 1018.63 1018.40 1018.21 1018.12 1018.08 1017.89 1017.19 1017.05 1017.25 1014.61 1011.79 1010.80 1009.13 1008.52 1007.90 1008.27 1008.85 1009.28 1009.76 1010.07 1010.59 1010.01 1008.55 1006.89 1005.65 1003.00 1000.34 997.99 996.99 996.01 996.61 996.77 996.70 997.33 997.25 996.37 994.96 993.92 993.78 993.24 993.74
1021.20 1021.05 1020.84 1020.58 1020.28 1020.03 1019.73 1019.42 1019.13 1018.82 1018.49 1018.21 1017.98 1017.70 1017.51 1017.43 1017.35 1017.41 1016.08 1014.47 1014.46 1015.06 1014.55 1012.09 1008.01 1007.03 1006.69 1006.85 1007.63 1008.55 1009.16 1009.55 1009.86 1009.63 1008.81 1007.68 1006.19 1005.28 1003.00 1000.15 997.47 997.24 996.56 995.72 994.01 996.13 996.01 996.75 997.12 996.27 996.14 995.00 995.28 996.45
1020.63 1020.45 1020.23 1019.94 1019.61 1019.32 1019.04 1018.65 1018.32 1017.96 1017.61 1017.30 1017.14 1016.97 1016.94 1016.53 1016.40 1016.01 1014.53 1013.56 1013.97 1014.95 1013.48 1011.66 1008.43 1006.84 1006.76 1007.57 1008.14 1008.55 1008.81 1009.02 1009.32 1008.85 1008.02 1007.01 1005.80 1005.27 1003.44 1001.17 999.07 998.44 997.53 994.99 994.34 994.88 996.15 996.95 997.19 996.71 998.23 998.43 998.09 999.10
1020.03 1019.82 1019.57 1019.26 1018.97 1018.62 1018.24 1017.83 1017.45 1017.16 1016.82 1016.50 1016.23 1016.00 1015.53 1015.22 1014.97 1014.21 1013.18 1012.96 1013.28 1014.07 1013.69 1011.27 1008.04 1007.52 1007.77 1007.74 1007.83 1007.91 1008.04 1008.34 1008.28 1007.81 1007.20 1006.54 1005.78 1005.07 1003.47 1002.13 1000.55 999.20 996.54 995.14 995.25 996.03 997.18 998.18 997.95 999.39 1000.01 1000.18 1000.46 1001.32
1019.40 1019.17 1018.92 1018.64 1018.33 1018.00 1017.60 1017.27 1016.95 1016.62 1016.29 1015.94 1015.48 1014.99 1014.42 1013.63 1013.32 1012.00 1011.58 1011.71 1011.80 1012.85 1011.60 1009.87 1007.75 1007.20 1007.97 1007.50 1007.32 1007.32 1007.42 1007.10 1007.09 1006.76 1006.38 1006.45 1005.30 1005.20 1004.75 1003.36 1002.48 1000.33 999.16 997.36 997.37 998.38 999.31 999.17 999.92 1001.12 1001.48 1001.51 1001.84 1003.00
1018.83 1018.56 1018.33 1018.09 1017.81 1017.45 1017.08 1016.78 1016.44 1016.12 1015.71 1015.21 1014.94 1014.24 1013.23 1012.54 1011.96 1011.80 1011.45 1011.25 1011.34 1011.20 1010.62 1008.58 1006.97 1006.35 1006.51 1006.45 1006.43 1006.57 1006.31 1005.83 1005.52 1005.76 1005.85 1005.62 1005.77 1005.75 1005.30 1004.52 1003.54 1002.67 1001.55 1000.21 999.79 1000.54 1000.79 1000.96 1002.12 1002.97 1003.25 1003.39 1003.91 1004.59
1018.23 1018.02 1017.77 1017.52 1017.25 1017.00 1016.75 1016.41 1016.08 1015.69 1014.93 1014.65 1014.00 1013.06 1012.50 1012.23 1012.03 1011.31 1010.51 1010.17 1009.61 1008.93 1007.72 1005.98 1005.32 1005.38 1005.52 1005.08 1005.19 1005.27 1005.16 1004.84 1004.61 1005.23 1005.25 1005.32 1005.60 1005.75 1005.55 1005.09 1004.44 1003.76 1003.13 1002.88 1002.63 1002.71 1002.83 1003.10 1003.25 1003.28 1003.36 1003.93 1004.42 1004.96
1017.69 1017.51 1017.33 1017.10 1016.83 1016.68 1016.48 1016.19 1015.90 1015.44 1015.05 1014.83 1014.39 1013.38 1012.51 1011.61 1010.84 1010.11 1008.69 1007.91 1007.06 1005.06 1004.24 1003.64 1003.74 1003.59 1003.73 1003.59 1003.87 1004.35 1004.28 1004.34 1004.30 1004.29 1004.74 1005.25 1005.97 1005.60 1005.61 1005.37 1004.88 1004.36 1004.27 1004.30 1004.23 1004.42 1004.34 1004.21 1004.31 1004.40 1004.60 1004.74 1004.95 1005.30
1017.20 1017.05 1016.94 1016.71 1016.49 1016.37 1016.21 1015.98 1015.83 1015.51 1014.66 1013.28 1013.07 1012.53 1011.44 1010.40 1009.32 1007.93 1006.21 1004.75 1003.82 1002.91 1003.01 1003.11 1002.78 1002.42 1002.96 1003.12 1003.23 1003.64 1003.88 1003.63 1003.70 1003.93 1004.65 1005.35 1004.96 1005.15 1005.46 1005.49 1005.32 1005.14 1004.90 1004.79 1005.01 1005.29 1005.55 1005.38 1005.35 1005.26 1005.26 1005.37 1005.63 1006.18
1016.68 1016.53 1016.42 1016.23 1016.09 1015.99 1015.87 1015.72 1015.69 1015.53 1014.69 1013.77 1012.69 1011.18 1009.61 1008.10 1006.80 1005.23 1004.84 1004.07 1003.20 1002.82 1002.67 1002.34 1002.08 1001.97 1001.92 1002.35 1002.74 1002.87 1002.99 1003.15 1002.79 1003.46 1004.47 1004.79 1004.71 1004.69 1004.64 1005.13 1005.54 1005.65 1005.84 1005.86 1005.85 1005.84 1005.95 1006.18 1006.08 1005.77 1005.69 1006.15 1006.23 1006.30
1016.12 1015.93 1015.84 1015.67 1015.56 1015.43 1015.48 1015.47 1015.43 1015.56 1014.75 1013.57 1012.16 1009.90 1007.71 1006.75 1005.93 1004.19 1003.59 1002.99 1003.14 1002.67 1001.98 1001.70 1001.70 1002.01 1002.27 1002.67 1002.47 1002.42 1002.57 1002.18 1002.38 1003.03 1004.00 1004.25 1004.33 1004.49 1004.63 1004.80 1005.02 1005.25 1005.43 1005.67 1006.22 1006.69 1006.91 1006.80 1006.63 1006.62 1006.56 1006.63 1007.01 1007.25
1015.60 1015.49 1014.86 1014.80 1014.96 1015.08 1015.10 1015.10 1014.66 1014.54 1014.01 1012.99 1011.19 1009.00 1007.48 1005.78 1004.83 1003.98 1003.37 1003.02 1002.73 1002.43 1001.89 1001.49 1001.45 1001.65 1001.88 1001.98 1002.07 1001.80 1001.44 1002.12 1003.22 1003.37 1003.89 1004.21 1004.43 1004.52 1004.73 1004.97 1005.13 1005.27 1005.40 1005.62 1005.86 1006.31 1006.97 1007.28 1007.28 1007.02 1007.17 1007.22 1007.44 1007.79
1015.39 1014.80 1014.53 1014.63 1014.80 1014.69 1014.47 1014.58 1014.43 1013.97 1012.90 1011.01 1009.17 1007.87 1006.99 1006.23 1005.17 1003.99 1003.56 1003.15 1002.89 1002.48 1001.86 1001.85 1002.04 1001.85 1001.96 1001.71 1001.65 1001.99 1002.04 1002.86 1003.28 1003.70 1003.88 1004.19 1004.51 1004.73 1005.03 1005.35 1005.54 1005.60 1005.64 1005.79 1006.04 1006.51 1006.90 1007.16 1007.42 1007.54 1007.72 1007.54 1007.65 1007.39
1014.67 1014.29 1014.53 1014.59 1014.66 1014.62 1014.29 1014.23 1013.77 1012.78 1011.34 1009.44 1008.05 1006.82 1006.13 1005.37 1004.96 1004.43 1003.96 1003.35 1002.89 1002.54 1002.45 1002.56 1002.43 1001.89 1001.83 1001.69 1002.55 1002.70 1002.99 1003.17 1003.39 1003.78 1004.15 1004.39 1004.64 1004.85 1005.01 1005.35 1005.58 1005.74 1005.84 1006.05 1006.44 1006.59 1006.74 1006.94 1006.93 1006.99 1007.01 1007.14 1007.16 1007.18
1013.75 1014.14 1014.45 1014.60 1014.61 1014.74 1014.06 1013.65 1013.23 1011.66 1009.54 1008.17 1007.02 1006.29 1005.40 1005.05 1004.89 1004.58 1003.88 1003.59 1003.38 1003.12 1003.04 1002.86 1002.56 1002.50 1002.52 1002.50 1002.77 1003.21 1003.33 1003.50 1003.85 1004.27 1004.58 1004.81 1005.03 1005.33 1005.49 1005.76 1005.91 1005.88 1005.85 1005.92 1006.02 1006.14 1006.25 1006.34 1006.36 1006.44 1006.65 1006.85 1006.99 1007.02
1013.89 1013.87 1013.90 1014.07 1014.59 1014.27 1013.29 1012.47 1012.19 1010.90 1009.01 1007.44 1006.16 1005.58 1005.07 1004.95 1004.63 1004.25 1004.23 1003.64 1003.11 1003.14 1003.44 1003.66 1003.95 1003.78 1003.55 1003.33 1003.30 1003.46 1003.68 1004.07 1004.45 1004.80 1005.15 1005.31 1005.49 1005.60 1005.68 1005.80 1005.96 1006.06 1006.37 1006.62 1006.82 1006.95 1007.00 1007.09 1007.03 1007.00 1007.11 1007.59 1007.76 1008.13
1013.39 1012.91 1013.11 1013.40 1013.69 1013.65 1012.47 1011.16 1010.56 1009.44 1008.15 1007.02 1005.81 1005.22 1005.11 1004.89 1004.59 1004.56 1003.99 1003.57 1003.85 1003.73 1004.23 1004.74 1005.01 1004.89 1004.44 1004.10 1003.95 1004.20 1004.50 1004.46 1004.75 1005.05 1005.30 1005.65 1005.77 1006.01 1006.20 1006.33 1006.47 1006.72 1007.03 1007.18 1007.41 1007.59 1007.73 1007.86 1007.98 1008.11 1008.41 1008.82 1008.99 1009.01
1013.16 1013.09 1012.83 1012.86 1012.52 1011.92 1011.21 1010.20 1009.55 1008.46 1007.78 1006.61 1005.72 1005.32 1005.30 1005.25 1005.08 1004.66 1004.17 1004.32 1004.76 1004.87 1004.94 1005.22 1005.37 1005.33 1005.18 1005.27 1005.40 1005.59 1005.61 1005.60 1005.76 1006.00 1006.29 1006.56 1006.65 1006.75 1006.93 1007.18 1007.38 1007.52 1007.73 1007.92 1008.03 1008.16 1008.42 1008.82 1009.22 1009.26 1009.27 1009.19 1009.04 1008.79
1013.01 1012.82 1012.32 1011.94 1011.58 1010.71 1009.78 1009.25 1008.83 1007.77 1007.24 1006.58 1005.82 1005.64 1006.19 1006.38 1005.93 1005.04 1005.00 1005.18 1005.52 1005.31 1005.39 1005.63 1005.73 1005.91 1005.98 1006.02 1006.23 1006.44 1006.59 1006.62 1006.69 1007.09 1007.25 1007.35 1007.31 1007.39 1007.55 1007.77 1007.99 1008.23 1008.42 1008.73 1009.23 1009.37 1009.49 1009.61 1009.63 1009.63 1009.48 1009.35 1009.13 1008.87
1012.56 1012.23 1011.52 1010.92 1010.43 1009.51 1009.01 1008.73 1008.02 1007.52 1007.01 1006.93 1006.38 1006.11 1006.14 1006.06 1005.46 1005.31 1005.34 1005.49 1005.85 1005.85 1006.03 1006.07 1006.08 1006.38 1006.50 1006.59 1006.97 1007.57 1007.83 1007.73 1007.59 1007.69 1007.87 1008.05 1008.20 1008.41 1008.64 1008.72 1008.82 1009.24 1009.62 1009.81 1009.78 1009.80 1010.08 1010.10 1009.97 1009.83 1009.65 1009.41 1009.16 1008.88
1011.94 1011.41 1010.94 1009.93 1009.33 1009.12 1008.63 1008.31 1007.98 1007.63 1007.37 1007.15 1006.89 1006.82 1006.76 1006.50 1006.58 1006.36 1006.15 1006.56 1006.50 1006.78 1007.05 1006.88 1007.00 1007.14 1007.17 1007.54 1007.95 1008.49 1008.71 1008.83 1008.83 1008.76 1008.65 1008.82 1009.09 1009.22 1009.32 1009.57 1009.94 1010.20 1010.32 1010.30 1010.42 1010.48 1010.46 1010.33 1010.20 1010.01 1009.82 1009.55 1009.24 1008.96
1010.36 1010.11 1009.76 1008.74 1008.63 1008.31 1007.92 1007.90 1007.85 1007.63 1007.54 1007.47 1007.45 1007.37 1007.23 1007.06 1007.32 1007.31 1007.73 1008.04 1008.15 1008.35 1008.36 1008.16 1007.91 1008.06 1008.65 1009.01 1009.05 1009.37 1009.71 1009.73 1009.63 1009.56 1009.64 1010.02 1010.08 1010.26 1010.35 1010.46 1010.61 1010.89 1011.22 1011.19 1011.09 1010.91 1010.71 1010.55 1010.40 1010.18 1009.96 1009.71 1009.43 1009.16
1009.47 1009.00 1008.43 1008.09 1007.73 1007.57 1007.68 1007.74 1007.74 1007.78 1007.74 1007.66 1007.63 1007.77 1007.85 1007.92 1008.27 1008.73 1009.09 1009.28 1009.36 1009.57 1009.51 1009.32 1009.23 1009.42 1009.76 1010.09 1010.38 1010.56 1010.75 1010.91 1011.07 1011.02 1010.78 1010.63 1010.64 1010.80 1011.03 1011.26 1011.41 1011.72 1011.68 1011.61 1011.50 1011.31 1011.07 1010.83 1010.66 1010.48 1010.22 1009.94 1009.70 1009.48
1008.65 1008.31 1008.13 1008.12 1007.86 1007.84 1008.06 1008.03 1008.14 1008.06 1007.78 1007.48 1007.70 1008.05 1008.32 1008.80 1009.53 1009.86 1010.09 1010.32 1010.19 1010.13 1010.28 1010.52 1010.54 1010.62 1010.96 1011.30 1011.57 1011.63 1011.71 1011.72 1011.56 1011.20 1010.99 1011.05 1011.29 1011.64 1011.89 1012.01 1012.05 1012.00 1011.87 1011.73 1011.60 1011.46 1011.32 1011.17 1010.95 1010.72 1010.46 1010.19 1009.93 1009.78
1008.31 1008.05 1008.34 1008.54 1008.56 1008.70 1008.77 1008.63 1008.50 1008.64 1008.51 1007.89 1008.04 1008.43 1009.27 1010.47 1011.26 1011.02 1011.07 1010.97 1010.93 1011.04 1011.36 1011.59 1011.89 1012.05 1012.01 1012.14 1012.16 1012.24 1012.13 1012.17 1012.02 1011.79 1011.71 1011.71 1011.76 1012.05 1012.11 1012.18 1012.20 1012.15 1012.08 1011.92 1011.72 1011.68 1011.51 1011.36 1011.16 1010.98 1010.78 1010.64 1010.47 1010.31
1008.26 1008.07 1008.32 1008.66 1008.75 1009.04 1009.52 1009.73 1009.68 1009.78 1009.15 1008.81 1008.70 1009.28 1010.35 1011.54 1012.09 1011.98 1011.66 1011.79 1012.09 1012.33 1012.53 1012.60 1012.72 1012.73 1012.72 1012.64 1012.68 1012.67 1012.71 1012.81 1012.86 1012.89 1012.67 1012.56 1012.62 1012.72 1012.63 1012.63 1012.56 1012.51 1012.36 1012.17 1012.00 1011.83 1011.56 1011.37 1011.27 1011.28 1011.27 1011.20 1011.06 1010.97
1008.18 1008.23 1008.46 1008.80 1009.38 1009.94 1010.26 1010.37 1010.35 1010.26 1009.94 1009.78 1009.77 1010.03 1010.71 1011.70 1012.47 1012.76 1012.77 1012.77 1012.79 1012.91 1013.04 1013.05 1013.13 1013.24 1013.29 1013.22 1013.23 1013.17 1013.14 1013.26 1013.29 1013.37 1013.43 1013.25 1013.15 1013.15 1013.16 1013.10 1013.03 1012.85 1012.69 1012.54 1012.43 1012.30 1012.11 1012.02 1011.98 1011.94 1011.97 1011.95 1011.93 1011.82
1008.50 1008.55 1008.58 1009.12 1009.90 1010.50 1010.58 1010.42 1010.17 1010.06 1010.18 1010.26 1010.66 1010.94 1011.46 1011.64 1012.03 1012.88 1013.23 1013.21 1013.17 1013.22 1013.42 1013.63 1013.60 1013.61 1013.69 1013.67 1013.64 1013.62 1013.69 1013.58 1013.73 1013.85 1013.89 1013.82 1013.74 1013.71 1013.53 1013.41 1013.31 1013.20 1013.04 1012.98 1012.95 1012.91 1012.82 1012.75 1012.74 1012.77 1012.77 1012.81 1012.76 1012.62
1008.99 1008.96 1008.96 1009.34 1009.89 1010.14 1010.33 1010.10 1009.83 1010.08 1010.20 1010.56 1011.20 1011.51 1011.69 1011.79 1012.32 1013.11 1013.33 1013.38 1013.52 1013.71 1013.83 1013.91 1013.88 1013.81 1013.80 1013.82 1013.90 1013.84 1013.81 1014.05 1014.25 1014.36 1014.41 1014.43 1014.36 1014.17 1013.90 1013.77 1013.68 1013.58 1013.47 1013.44 1013.50 1013.50 1013.50 1013.56 1013.61 1013.62 1013.67 1013.65 1013.59 1013.48
Wind_Speed
18 19 19 19 19 19 19 20 21 22 21 21 21 21 21 21 21 14 9 10 10 8 16 23 25 25 20 18 19 17 10 7 7 8 6 8 10 19 22 27 26 21 17 15 12 10 19 20 15 32 17 15 15 12
18 18 19 19 19 19 20 22 22 22 22 22 22 22 24 23 22 18 12 9 10 10 10 18 25 27 27 30 20 16 14 14 4 5 5 6 13 15 22 18 24 24 14 12 13 15 18 10 9 11 12 10 10 7
18 19 19 19 20 21 22 21 21 22 22 23 24 23 24 23 23 19 11 8 5 6 12 17 19 27 24 28 21 14 8 8 8 7 7 6 10 7 11 11 23 21 15 9 10 5 17 12 12 6 6 1 1 1
18 19 19 20 20 21 21 21 21 21 23 24 24 24 23 22 21 19 9 8 6 4 7 16 14 13 23 20 21 19 21 15 12 3 5 5 7 10 15 14 13 12 13 12 5 16 13 16 9 11 8 18 16 15
17 18 18 18 18 19 20 21 22 23 23 22 24 23 22 21 21 14 10 10 12 7 7 9 17 27 23 14 18 15 14 15 4 4 5 5 7 10 9 14 12 11 7 7 6 13 7 6 11 13 11 9 16 16
18 17 17 17 18 19 21 21 22 24 23 22 21 20 19 19 19 6 4 4 4 13 6 6 9 14 9 9 15 12 8 4 3 3 3 4 12 8 5 7 7 17 25 15 13 23 18 11 6 4 9 17 21 21
16 16 17 19 20 20 22 22 22 22 23 22 19 17 21 24 10 5 6 1 9 5 3 5 7 5 7 4 2 3 5 3 3 3 4 4 8 3 5 6 12 16 23 7 8 20 11 10 9 15 10 16 21 20
16 16 18 19 20 22 22 23 20 16 16 16 18 21 21 19 18 12 13 22 13 4 4 5 6 4 3 3 3 4 3 4 5 3 2 3 3 2 4 11 13 22 18 14 18 14 16 14 20 16 16 16 19 16
16 16 18 19 20 20 17 15 15 16 17 19 20 23 16 8 6 6 4 11 6 5 4 5 4 2 5 3 3 2 2 3 3 3 1 2 2 3 6 10 12 16 18 7 23 18 13 18 16 12 13 14 16 13
16 16 17 18 18 16 15 15 15 17 18 20 14 6 3 1 9 7 1 3 2 3 4 5 1 3 5 4 3 2 3 2 2 1 2 2 2 3 8 8 9 13 17 18 18 18 15 18 14 12 12 9 11 11
15 16 16 16 16 15 14 13 13 16 18 1 3 3 3 8 2 2 4 5 5 5 7 7 10 4 3 4 1 4 2 2 1 3 1 4 4 5 6 9 9 13 15 15 15 14 13 10 11 12 12 13 10 8
14 14 14 18 14 13 13 14 14 8 4 8 8 10 3 3 4 5 4 5 6 5 4 5 5 6 4 2 3 1 2 2 2 1 3 3 1 4 5 3 8 8 13 11 12 12 11 13 11 10 10 10 10 10
13 13 15 15 12 12 12 12 11 15 16 7 2 4 4 4 6 6 5 5 3 4 3 3 6 4 3 3 1 3 2 1 1 3 4 2 4 7 7 4 6 8 11 9 11 10 12 11 10 9 8 7 8 9
15 15 15 14 12 13 12 11 9 8 6 3 4 6 5 5 6 2 3 4 3 4 3 7 3 2 1 2 2 2 2 2 3 4 4 2 6 6 8 11 11 10 10 8 6 7 10 10 5 3 5 3 2 3
16 15 14 13 14 14 7 8 10 4 3 4 5 6 5 3 8 4 4 2 1 2 4 2 1 3 1 2 3 0 2 0 6 5 7 5 8 9 8 8 8 7 5 8 9 7 5 8 8 7 7 8 9 7
13 13 13 15 10 6 10 10 4 5 3 4 6 6 7 7 7 5 3 3 1 3 4 3 1 1 1 1 3 2 2 4 7 5 7 8 8 8 8 8 8 7 7 7 7 8 6 4 3 5 6 5 3 1
6 5 5 6 4 9 16 3 3 4 5 5 6 6 8 8 7 6 5 3 1 4 2 3 2 4 2 3 4 5 6 9 9 7 7 9 9 8 8 7 6 6 7 6 6 6 4 5 2 2 4 3 6 4
9 6 7 2 5 3 1 2 3 4 6 7 8 7 7 4 4 3 3 4 2 2 3 4 4 2 3 3 5 8 8 7 7 8 7 8 8 7 5 7 5 5 5 6 3 1 3 5 5 3 4 4 3 3
9 3 6 6 3 2 2 4 3 5 8 7 7 6 4 2 2 5 1 2 3 2 2 3 2 5 6 7 8 7 6 6 7 7 6 8 8 6 4 5 4 5 5 6 7 5 5 8 7 6 5 4 4 4
12 14 14 12 4 3 4 3 3 4 4 4 4 3 2 2 2 2 1 5 2 2 2 3 4 7 5 5 6 5 6 7 6 5 4 4 3 2 3 3 4 6 6 8 6 5 4 5 5 5 5 5 6 7
9 6 5 6 4 5 4 2 4 4 4 3 3 2 1 3 3 5 4 4 5 3 4 4 4 3 5 4 6 6 5 5 4 3 2 3 4 4 4 4 5 3 3 4 4 4 4 5 6 7 7 6 5 6
2 4 2 5 4 5 4 4 3 4 3 3 2 2 2 2 2 2 3 5 3 5 5 5 5 5 6 9 8 9 8 7 7 4 4 3 3 3 4 4 4 4 4 5 5 5 6 7 6 6 6 6 6 7
2 3 2 3 4 4 1 2 3 4 2 2 2 3 3 1 3 5 2 4 2 2 6 6 8 8 6 8 8 9 10 8 5 5 3 3 5 4 4 5 5 5 5 6 7 6 6 6 5 6 6 7 7 7
3 3 3 4 5 3 2 2 3 2 1 0 1 2 3 2 1 1 2 3 4 4 4 4 4 4 4 5 6 6 5 5 4 4 4 4 5 5 5 5 6 7 7 6 7 4 4 5 7 7 7 7 8 8
4 5 4 4 3 2 3 2 1 2 1 2 2 2 1 2 2 1 3 3 4 7 5 4 5 5 5 5 5 5 7 6 6 5 5 6 6 6 6 6 7 6 6 5 5 6 7 6 6 7 8 8 10 10
4 4 4 4 3 4 5 4 4 3 2 2 1 2 1 1 2 2 4 3 4 4 4 5 4 5 6 7 6 6 5 6 6 6 7 7 7 7 6 6 5 3 5 6 7 8 9 7 8 10 8 10 11 10
3 4 4 3 2 2 1 2 3 3 2 3 3 2 2 2 3 3 4 5 4 4 4 5 6 6 5 5 5 6 7 7 7 7 7 6 4 2 3 4 5 5 7 6 6 7 9 8 8 9 8 8 8 8
3 3 5 3 1 0 1 1 3 3 3 2 3 1 1 2 3 3 3 4 3 4 6 7 8 7 7 7 6 5 6 6 6 5 4 4 6 5 6 5 4 5 5 5 5 6 7 7 7 7 8 8 7 7
2 2 4 3 1 2 1 1 1 3 4 1 3 2 3 4 4 4 3 3 5 6 6 5 6 5 5 5 5 3 4 5 7 9 9 5 4 3 6 5 5 5 5 5 5 5 6 5 6 6 8 7 7 7
2 2 2 1 1 2 3 4 2 2 2 3 2 5 6 3 4 3 3 5 6 6 3 5 4 4 4 5 4 4 3 4 4 5 6 6 6 5 5 5 5 5 5 5 5 6 7 5 5 6 7 6 7 7
2 2 2 3 3 2 2 2 1 3 2 4 4 4 5 5 3 4 4 3 3 3 4 4 4 3 4 5 5 5 3 3 5 6 6 5 5 5 5 5 5 4 4 5 6 6 7 7 7 7 9 9 10 9
2 1 3 3 3 2 1 1 1 2 1 2 2 2 2 2 3 2 1 2 3 4 4 4 4 4 4 3 3 1 2 3 5 5 7 5 5 5 4 4 4 4 5 6 6 6 8 8 7 8 8 11 11 11
3 3 3 5 4 3 2 2 1 2 2 2 2 1 2 3 3 2 2 2 2 2 3 4 3 2 2 2 2 3 3 5 6 6 6 7 7 6 4 4 4 5 6 6 6 6 8 10 9 10 10 10 11 11
Wind_Direction
296 294 289 284 282 281 281 282 280 277 278 275 276 278 276 272 274 274 267 258 253 268 269 268 271 265 270 265 270 275 282 237 230 231 244 257 278 269 257 245 249 246 203 217 236 243 251 235 262 232 253 224 221 223
295 295 290 284 282 279 277 278 280 280 281 279 277 276 276 273 270 270 269 265 258 254 273 288 271 270 263 268 262 267 265 267 230 275 263 301 280 277 276 264 247 243 196 206 204 207 251 38 335 351 321 77 319 253
292 291 287 286 285 282 284 286 284 283 283 284 282 282 282 275 267 265 265 263 243 271 280 247 250 257 247 242 242 260 256 232 230 228 259 248 262 287 286 249 260 248 175 174 270 296 347 336 336 330 309 154 297 55
291 293 292 291 291 290 288 286 284 286 286 284 283 280 280 272 270 268 258 254 240 269 274 276 270 282 271 259 244 232 248 251 252 191 233 255 270 274 286 296 278 295 176 195 202 280 318 311 330 349 29 66 67 75
295 292 296 296 295 294 292 289 291 286 289 286 285 280 275 273 273 276 252 247 237 230 286 293 295 273 253 249 230 245 250 248 207 200 219 246 270 265 271 273 251 263 249 184 219 188 194 261 301 343 61 94 90 84
293 294 295 296 296 293 295 295 292 290 289 285 284 281 279 287 288 267 258 194 287 218 246 258 264 276 264 237 218 242 245 238 186 217 235 230 243 254 269 274 290 358 328 277 194 174 180 168 159 32 54 56 70 72
296 296 295 298 298 299 297 295 294 291 289 280 280 299 286 271 259 229 257 201 311 356 274 254 255 31 62 145 208 224 209 190 206 230 225 249 273 340 261 266 319 335 321 212 71 130 97 134 124 97 67 74 81 75
293 293 294 298 299 299 297 297 295 293 295 283 279 280 288 283 272 259 245 260 262 231 220 263 266 174 177 211 233 186 196 191 196 247 227 236 260 217 269 335 355 356 336 99 100 94 123 110 98 99 107 97 92 86
294 297 297 299 301 304 303 302 297 295 294 293 292 295 287 252 236 244 237 255 193 205 246 236 264 288 172 219 227 205 202 229 164 241 226 238 324 30 303 344 1 351 5 78 103 108 127 108 108 105 98 100 96 101
295 298 301 301 304 303 302 302 296 297 296 292 293 248 254 273 327 296 169 207 164 199 229 251 207 258 192 183 200 264 202 233 220 86 241 318 70 335 354 354 3 28 33 32 75 81 83 88 92 87 89 96 113 128
294 295 299 305 309 303 311 314 308 307 296 287 325 252 325 254 258 231 216 212 178 217 211 221 224 240 263 233 173 205 329 283 172 80 315 7 24 8 2 12 39 56 55 55 55 63 83 102 135 141 121 96 109 123
293 297 306 309 304 298 304 316 316 309 285 305 275 291 270 253 223 242 210 201 215 244 184 196 187 193 213 204 222 80 310 325 21 200 123 24 69 52 44 351 31 81 98 92 96 102 81 73 82 99 120 127 116 111
291 296 303 308 296 298 297 308 324 321 309 287 257 249 242 217 236 235 201 212 211 188 123 137 194 198 138 221 214 165 246 12 266 30 65 189 155 149 138 94 70 58 40 82 99 73 41 36 53 48 57 68 125 142
289 292 295 293 288 286 289 298 307 330 293 280 264 256 253 203 234 322 3 340 49 78 168 214 156 307 66 204 169 232 63 192 265 99 101 134 123 113 128 150 146 134 122 114 110 138 147 144 132 63 96 120 328 20
289 287 285 278 270 272 281 299 300 295 271 270 254 253 253 326 258 338 358 60 59 252 248 95 184 172 49 48 292 162 221 111 16 87 127 123 112 118 114 101 90 99 120 109 95 87 55 21 44 38 16 35 49 26
288 283 261 252 257 256 296 308 273 190 244 248 241 268 317 326 354 344 355 43 320 283 278 259 52 232 123 149 210 277 349 63 115 102 118 123 123 113 104 88 71 69 77 85 97 110 92 70 32 39 6 346 348 321
263 255 146 160 236 312 296 224 209 219 248 241 248 262 285 279 296 351 16 331 235 262 324 14 336 16 25 312 66 352 85 102 110 125 132 124 120 114 101 103 94 73 69 61 69 58 47 37 92 256 284 268 208 251
251 254 230 286 331 291 222 215 242 241 248 252 267 291 297 315 309 338 342 308 272 334 355 6 294 284 347 68 90 89 105 127 114 109 119 116 114 103 97 92 67 51 30 46 20 301 211 209 244 232 297 330 320 275
253 302 284 291 342 301 242 214 227 261 241 261 267 272 277 304 304 295 242 295 3 329 345 305 339 23 60 92 116 115 112 106 109 107 105 100 83 83 76 55 13 358 357 354 350 344 341 340 335 334 332 323 304 306
255 272 276 276 227 244 240 216 210 251 274 259 264 264 319 352 310 158 182 262 313 48 21 41 41 39 61 76 92 103 98 96 95 93 90 95 102 89 19 3 354 351 359 342 336 336 320 331 320 316 337 8 3 12
259 267 241 200 169 227 281 243 221 235 278 267 253 268 129 205 159 147 240 68 40 15 73 81 80 47 36 58 70 79 106 123 87 82 92 96 54 13 352 339 339 346 323 324 342 338 354 338 358 7 25 13 356 323
247 263 270 185 226 217 238 224 260 292 263 268 235 174 62 70 130 212 49 69 62 70 92 119 137 135 89 73 68 65 52 63 58 69 61 55 354 341 352 355 338 343 349 343 340 349 5 31 6 358 342 325 316 318
250 209 229 214 241 238 250 151 242 215 239 261 190 117 102 96 254 242 56 80 85 42 86 77 80 90 88 79 74 53 42 20 34 28 3 336 332 350 4 8 6 352 339 20 15 352 339 352 352 340 332 331 322 315
146 230 226 212 226 261 178 258 252 291 27 80 232 104 108 178 225 74 138 98 107 131 115 83 99 95 91 75 64 53 22 0 18 26 27 5 357 4 356 344 6 19 8 345 327 359 19 344 335 327 321 318 320 320
216 193 230 203 270 196 222 153 239 236 196 212 67 92 113 246 147 328 108 86 76 49 35 33 53 28 22 80 75 69 43 27 10 353 7 29 2 344 341 5 357 348 10 6 4 350 339 331 328 327 329 325 331 331
245 156 207 197 181 212 192 168 191 191 116 60 45 101 245 145 82 81 61 36 39 62 29 15 16 89 57 26 38 39 26 8 356 347 17 7 354 347 339 338 342 31 22 356 342 335 332 333 329 336 339 338 334 337
223 194 197 253 266 184 81 78 108 106 146 168 162 178 164 142 106 81 89 28 83 71 59 45 53 55 58 53 41 26 26 21 359 337 326 326 324 32 7 11 359 6 348 341 335 332 330 337 348 340 337 342 346 347
244 201 182 169 41 251 77 111 157 159 187 134 146 123 97 73 87 53 68 49 52 77 72 53 36 45 50 34 20 8 359 347 338 325 342 42 61 59 38 23 6 335 322 322 343 355 356 349 340 341 343 337 350 354
204 162 113 122 171 113 36 47 102 50 343 285 146 115 109 59 10 24 46 40 36 52 54 44 39 20 30 16 25 1 9 7 353 0 353 348 352 36 12 1 353 7 9 354 9 21 351 342 344 352 4 14 3 18
145 198 118 124 84 76 66 354 64 1 316 356 45 111 95 82 35 350 29 57 72 73 51 37 39 30 14 7 1 4 30 44 40 360 336 345 348 348 12 9 12 10 7 9 14 4 8 19 33 36 31 23 18 24
142 142 101 79 85 65 55 17 248 173 22 19 8 69 91 119 119 56 69 68 63 53 53 31 35 48 17 5 0 344 354 65 39 32 10 348 9 19 15 18 16 10 18 25 28 23 23 35 29 37 35 34 29 30
93 67 154 125 116 126 214 274 79 89 49 73 68 74 127 153 103 103 53 7 40 47 36 21 358 8 5 349 330 10 354 33 35 23 21 10 15 8 11 24 28 25 33 45 43 37 33 35 43 37 36 37 33 33
117 110 116 122 137 163 154 232 120 112 95 89 82 85 58 19 97 114 134 81 66 56 23 358 330 322 326 310 40 1 68 90 85 70 60 50 35 19 16 27 37 37 44 52 48 42 46 53 45 46 45 42 38 34